TimeMST,TemperatureF,Dew PointF,Humidity,Sea Level PressureIn,VisibilityMPH,Wind Direction,Wind SpeedMPH,Gust SpeedMPH,PrecipitationIn,Events,Conditions,WindDirDegrees,DateUTC
12:15 AM,10.4,-4.0,52,29.95,10.0,NE,6.9,-,N/A,,Clear,40,2013-01-14 07:15:00
12:35 AM,10.4,-2.2,57,29.95,10.0,NNE,6.9,-,N/A,,Clear,20,2013-01-14 07:35:00
12:55 AM,12.2,-2.2,53,29.95,10.0,North,9.2,-,N/A,,Clear,10,2013-01-14 07:55:00
1:55 AM,14.0,-2.2,49,29.95,10.0,North,10.4,-,N/A,,Clear,360,2013-01-14 08:55:00
2:15 AM,14.0,-0.4,53,29.95,10.0,North,10.4,-,N/A,,Clear,360,2013-01-14 09:15:00
2:35 AM,12.2,-0.4,57,29.96,10.0,North,9.2,-,N/A,,Clear,350,2013-01-14 09:35:00
2:55 AM,12.2,-0.4,57,29.96,10.0,North,6.9,-,N/A,,Clear,350,2013-01-14 09:55:00
3:15 AM,14.0,-0.4,53,29.96,10.0,North,9.2,-,N/A,,Clear,360,2013-01-14 10:15:00
3:35 AM,14.0,-0.4,53,29.95,10.0,North,8.1,-,N/A,,Clear,360,2013-01-14 10:35:00
3:55 AM,14.0,-0.4,53,29.94,10.0,North,6.9,-,N/A,,Clear,360,2013-01-14 10:55:00
4:35 AM,12.2,-0.4,57,29.93,10.0,NNW,5.8,-,N/A,,Clear,340,2013-01-14 11:35:00
4:55 AM,10.4,-0.4,62,29.93,10.0,NW,6.9,-,N/A,,Clear,320,2013-01-14 11:55:00
5:15 AM,10.4,-0.4,62,29.93,10.0,NNW,5.8,-,N/A,,Clear,330,2013-01-14 12:15:00
5:35 AM,8.6,-0.4,67,29.93,10.0,North,4.6,-,N/A,,Clear,360,2013-01-14 12:35:00
5:55 AM,8.6,-2.2,62,29.93,10.0,North,5.8,-,N/A,,Clear,350,2013-01-14 12:55:00
6:15 AM,8.6,-2.2,62,29.94,10.0,NNW,5.8,-,N/A,,Clear,330,2013-01-14 13:15:00
6:35 AM,8.6,-0.4,67,29.94,10.0,NNE,4.6,-,N/A,,Clear,30,2013-01-14 13:35:00
6:55 AM,8.6,-2.2,62,29.95,10.0,NE,4.6,-,N/A,,Clear,50,2013-01-14 13:55:00
7:15 AM,8.6,-2.2,62,29.95,10.0,NE,4.6,-,N/A,,Clear,50,2013-01-14 14:15:00
7:35 AM,8.6,-0.4,67,29.96,10.0,NNE,4.6,-,N/A,,Clear,30,2013-01-14 14:35:00
7:55 AM,14.0,-0.4,53,29.97,10.0,NE,3.5,-,N/A,,Clear,40,2013-01-14 14:55:00
8:15 AM,17.6,1.4,49,29.98,10.0,NNW,3.5,-,N/A,,Clear,330,2013-01-14 15:15:00
8:35 AM,23.0,1.4,39,29.98,10.0,Calm,Calm,-,N/A,,Clear,0,2013-01-14 15:35:00
8:55 AM,24.8,1.4,36,29.99,10.0,Calm,Calm,-,N/A,,Clear,0,2013-01-14 15:55:00
9:15 AM,26.6,1.4,34,29.99,10.0,South,5.8,-,N/A,,Clear,170,2013-01-14 16:15:00
9:35 AM,26.6,1.4,34,29.99,10.0,SSE,3.5,-,N/A,,Clear,150,2013-01-14 16:35:00
9:55 AM,26.6,1.4,34,29.99,10.0,South,4.6,-,N/A,,Clear,170,2013-01-14 16:55:00
10:15 AM,28.4,1.4,31,29.99,10.0,WSW,4.6,-,N/A,,Clear,240,2013-01-14 17:15:00
10:35 AM,28.4,1.4,31,29.98,10.0,South,3.5,-,N/A,,Clear,180,2013-01-14 17:35:00
10:55 AM,32.0,-0.4,25,29.97,10.0,West,8.1,17.3,N/A,,Clear,280,2013-01-14 17:55:00
11:15 AM,32.0,-2.2,23,29.96,10.0,West,16.1,20.7,N/A,,Clear,270,2013-01-14 18:15:00
11:35 AM,32.0,-4.0,21,29.96,10.0,West,15.0,23.0,N/A,,Clear,260,2013-01-14 18:35:00
11:55 AM,32.0,-4.0,21,29.95,10.0,WNW,12.7,24.2,N/A,,Clear,290,2013-01-14 18:55:00
12:15 PM,32.0,-4.0,21,29.94,10.0,WNW,13.8,21.9,N/A,,Clear,300,2013-01-14 19:15:00
12:35 PM,32.0,-4.0,21,29.93,10.0,West,13.8,23.0,N/A,,Clear,280,2013-01-14 19:35:00
12:55 PM,32.0,-5.8,20,29.93,10.0,WNW,19.6,26.5,N/A,,Clear,290,2013-01-14 19:55:00
1:15 PM,32.0,-5.8,20,29.93,10.0,NW,15.0,25.3,N/A,,Clear,310,2013-01-14 20:15:00
1:35 PM,32.0,-5.8,20,29.93,10.0,WNW,17.3,26.5,N/A,,Clear,300,2013-01-14 20:35:00
1:55 PM,32.0,-7.6,18,29.94,10.0,WNW,19.6,27.6,N/A,,Clear,300,2013-01-14 20:55:00
2:35 PM,32.0,-7.6,18,29.94,10.0,WNW,18.4,26.5,N/A,,Clear,290,2013-01-14 21:35:00
2:55 PM,32.0,-7.6,18,29.95,10.0,West,19.6,25.3,N/A,,Clear,280,2013-01-14 21:55:00
3:15 PM,32.0,-7.6,18,29.96,10.0,WNW,13.8,19.6,N/A,,Clear,290,2013-01-14 22:15:00
3:35 PM,32.0,-7.6,18,29.97,10.0,West,16.1,23.0,N/A,,Clear,280,2013-01-14 22:35:00
3:55 PM,32.0,-7.6,18,29.97,10.0,WNW,16.1,20.7,N/A,,Clear,290,2013-01-14 22:55:00
4:15 PM,32.0,-5.8,20,29.98,10.0,WNW,12.7,18.4,N/A,,Clear,290,2013-01-14 23:15:00
4:35 PM,32.0,-4.0,21,29.99,10.0,West,9.2,-,N/A,,Clear,280,2013-01-14 23:35:00
4:55 PM,30.2,-4.0,23,30.00,10.0,WNW,10.4,16.1,N/A,,Clear,290,2013-01-14 23:55:00
5:15 PM,28.4,-4.0,25,30.00,10.0,West,10.4,-,N/A,,Clear,280,2013-01-15 00:15:00
5:35 PM,26.6,-4.0,26,30.01,10.0,West,9.2,-,N/A,,Clear,260,2013-01-15 00:35:00
5:55 PM,26.6,-2.2,29,30.02,10.0,West,8.1,-,N/A,,Clear,270,2013-01-15 00:55:00
6:15 PM,24.8,-2.2,31,30.03,10.0,West,5.8,-,N/A,,Clear,280,2013-01-15 01:15:00
6:35 PM,21.2,-4.0,33,30.03,10.0,WNW,6.9,-,N/A,,Clear,300,2013-01-15 01:35:00
6:55 PM,15.8,-5.8,38,30.03,10.0,NW,10.4,-,N/A,,Clear,320,2013-01-15 01:55:00
7:15 PM,15.8,-5.8,38,30.03,10.0,NW,12.7,-,N/A,,Clear,320,2013-01-15 02:15:00
7:35 PM,17.6,-4.0,38,30.02,10.0,NNW,12.7,-,N/A,,Clear,340,2013-01-15 02:35:00
7:55 PM,19.4,-2.2,39,30.02,10.0,North,11.5,-,N/A,,Clear,350,2013-01-15 02:55:00
8:15 PM,19.4,-2.2,39,30.02,10.0,North,11.5,-,N/A,,Clear,350,2013-01-15 03:15:00
8:35 PM,17.6,-2.2,42,30.02,10.0,North,13.8,-,N/A,,Clear,360,2013-01-15 03:35:00
8:55 PM,17.6,-2.2,42,30.02,10.0,North,12.7,-,N/A,,Clear,350,2013-01-15 03:55:00
9:15 PM,19.4,-2.2,39,30.02,10.0,North,12.7,23.0,N/A,,Clear,350,2013-01-15 04:15:00
9:35 PM,19.4,-2.2,39,30.01,10.0,North,15.0,-,N/A,,Clear,360,2013-01-15 04:35:00
9:55 PM,19.4,-2.2,39,30.01,10.0,North,15.0,-,N/A,,Clear,360,2013-01-15 04:55:00
10:15 PM,19.4,-2.2,39,30.01,10.0,North,10.4,-,N/A,,Clear,350,2013-01-15 05:15:00
10:35 PM,19.4,-2.2,39,30.01,10.0,North,8.1,-,N/A,,Clear,350,2013-01-15 05:35:00
10:55 PM,17.6,-4.0,38,30.01,10.0,WNW,10.4,-,N/A,,Clear,300,2013-01-15 05:55:00
11:15 PM,17.6,-4.0,38,30.02,10.0,WNW,12.7,-,N/A,,Clear,300,2013-01-15 06:15:00
11:35 PM,15.8,-2.2,45,30.03,10.0,NW,11.5,-,N/A,,Clear,310,2013-01-15 06:35:00
11:55 PM,15.8,-2.2,45,30.03,10.0,NW,12.7,-,N/A,,Clear,320,2013-01-15 06:55:00